DLH249 EDDF-BIKF

Flight info

Callsign DLH249
Flight time N/A
Altitude 24000
Route MARUN7F/25C MARUN Y152 ARPEG/N0486F340 Z850 ABILU/N0482F400 DCT ATPAQ DCT DOROR DCT GUNPA/M085F400 DCT ING DCT NASBU NASBU5N
Aircraft A359/H-SDE2E3GHIJ3J4J5LM1ORWXY/LB1D1

Departure

Time 2026-05-03 20:15
Airport Frankfurt Main Airport (EDDF)

Arrival

Time N/A
Airport Keflavik International Airport (BIKF)
Time Latitude Longitude Altitude Speed Heading
2026-05-03 20:15 50.07359 8.37196 4975 ft 271 kts 317°
2026-05-03 20:15 50.08875 8.35464 4978 ft 270 kts 316°
2026-05-03 20:15 50.10436 8.33855 5003 ft 276 kts 326°
2026-05-03 20:15 50.12328 8.33038 5368 ft 292 kts 352°
2026-05-03 20:16 50.14374 8.33473 6255 ft 302 kts 12°
2026-05-03 20:16 50.16422 8.34413 7085 ft 308 kts 15°
2026-05-03 20:16 50.18472 8.35419 8060 ft 308 kts 15°
2026-05-03 20:16 50.20527 8.36416 9100 ft 308 kts 15°
2026-05-03 20:17 50.22556 8.37390 10069 ft 310 kts 14°
2026-05-03 20:17 50.24671 8.38395 10636 ft 327 kts 14°
2026-05-03 20:17 50.26925 8.39461 11007 ft 349 kts 14°
2026-05-03 20:17 50.29323 8.40597 11367 ft 370 kts 15°
2026-05-03 20:18 50.31812 8.41877 11971 ft 381 kts 17°
2026-05-03 20:18 50.34327 8.43278 12796 ft 385 kts 18°
2026-05-03 20:18 50.36867 8.44692 13634 ft 389 kts 17°
2026-05-03 20:18 50.39437 8.46112 14358 ft 394 kts 17°
2026-05-03 20:19 50.42038 8.47543 15020 ft 400 kts 17°
2026-05-03 20:19 50.44688 8.48999 15661 ft 406 kts 17°
2026-05-03 20:19 50.47373 8.50472 16344 ft 411 kts 17°
2026-05-03 20:19 50.50104 8.51883 16995 ft 415 kts 14°
2026-05-03 20:20 50.52888 8.53188 17669 ft 421 kts 14°
2026-05-03 20:20 50.55678 8.54491 18331 ft 426 kts 14°
2026-05-03 20:20 50.58530 8.55836 18931 ft 430 kts 14°
2026-05-03 20:20 50.61424 8.57212 19557 ft 435 kts 14°
2026-05-03 20:21 50.64339 8.58606 20179 ft 440 kts 15°
2026-05-03 20:21 50.67284 8.60020 20809 ft 445 kts 15°
2026-05-03 20:21 50.70269 8.61457 21444 ft 450 kts 15°
2026-05-03 20:21 50.73279 8.62906 22064 ft 454 kts 15°
2026-05-03 20:22 50.76385 8.63800 22639 ft 455 kts
2026-05-03 20:22 50.79544 8.63557 23261 ft 454 kts 347°
2026-05-03 20:22 50.82570 8.62243 23807 ft 451 kts 334°
2026-05-03 20:22 50.85328 8.59935 24341 ft 447 kts 321°
2026-05-03 20:23 50.87698 8.56777 24890 ft 443 kts 309°
2026-05-03 20:23 50.89780 8.53261 25400 ft 445 kts 307°
2026-05-03 20:23 50.91806 8.49534 25949 ft 447 kts 305°
2026-05-03 20:23 50.93803 8.45716 26465 ft 450 kts 304°
2026-05-03 20:24 50.95801 8.41855 27005 ft 454 kts 304°
2026-05-03 20:24 50.97818 8.37969 27524 ft 458 kts 304°
2026-05-03 20:24 50.99899 8.34104 28047 ft 464 kts 308°
2026-05-03 20:24 51.02301 8.30610 28534 ft 474 kts 317°
2026-05-03 20:25 51.05064 8.27646 29036 ft 482 kts 323°
2026-05-03 20:25 51.07968 8.24882 29462 ft 488 kts 324°
2026-05-03 20:25 51.10934 8.22206 29930 ft 493 kts 326°
2026-05-03 20:25 51.13948 8.19557 30337 ft 496 kts 326°
2026-05-03 20:26 51.16952 8.16932 30729 ft 498 kts 326°
2026-05-03 20:26 51.19994 8.14260 31082 ft 501 kts 326°
2026-05-03 20:26 51.23053 8.11555 31426 ft 504 kts 326°
2026-05-03 20:26 51.26134 8.08810 31709 ft 508 kts 326°
2026-05-03 20:27 51.29225 8.06040 32010 ft 511 kts 326°
2026-05-03 20:27 51.32335 8.03247 32363 ft 513 kts 326°
2026-05-03 20:27 51.35446 8.00446 32712 ft 514 kts 326°
2026-05-03 20:27 51.38627 7.97815 33201 ft 516 kts 332°
2026-05-03 20:28 51.42018 7.95863 33695 ft 520 kts 341°
2026-05-03 20:28 51.45575 7.94716 34119 ft 522 kts 348°
2026-05-03 20:28 51.49175 7.93918 34518 ft 521 kts 349°
2026-05-03 20:28 51.52728 7.93259 34928 ft 519 kts 351°
2026-05-03 20:29 51.56317 7.92655 35340 ft 517 kts 351°
2026-05-03 20:29 51.59904 7.92070 35693 ft 516 kts 351°
2026-05-03 20:29 51.63483 7.91483 36057 ft 515 kts 351°
2026-05-03 20:29 51.67044 7.90887 36415 ft 513 kts 351°
2026-05-03 20:30 51.70595 7.90281 36757 ft 512 kts 351°
2026-05-03 20:30 51.74133 7.89668 37095 ft 510 kts 351°
2026-05-03 20:30 51.77612 7.89059 37419 ft 509 kts 351°
2026-05-03 20:30 51.81169 7.88434 37750 ft 507 kts 351°
2026-05-03 20:31 51.84670 7.87817 38097 ft 506 kts 351°
2026-05-03 20:31 51.88163 7.87201 38429 ft 504 kts 351°
2026-05-03 20:31 51.91647 7.86585 38708 ft 503 kts 351°
2026-05-03 20:31 51.95117 7.85971 38905 ft 502 kts 351°
2026-05-03 20:32 51.98597 7.85355 39084 ft 502 kts 351°
2026-05-03 20:32 52.02027 7.84747 39278 ft 502 kts 350°
2026-05-03 20:32 52.05498 7.84131 39511 ft 501 kts 351°
2026-05-03 20:32 52.08970 7.83514 39698 ft 500 kts 351°
2026-05-03 20:33 52.12428 7.82898 39846 ft 501 kts 351°
2026-05-03 20:33 52.18204 7.81867 39939 ft 502 kts 351°
2026-05-03 20:34 52.26285 7.80421 39938 ft 501 kts 351°
2026-05-03 20:34 52.33213 7.79177 39930 ft 501 kts 351°
2026-05-03 20:35 52.38974 7.78140 39931 ft 500 kts 351°
2026-05-03 20:35 52.45903 7.76889 39925 ft 500 kts 351°
2026-05-03 20:36 52.52832 7.75633 39929 ft 500 kts 350°
2026-05-03 20:36 52.59739 7.74237 39926 ft 499 kts 348°
2026-05-03 20:37 52.66621 7.72593 39914 ft 499 kts 348°
2026-05-03 20:37 52.77697 7.69951 39919 ft 499 kts 348°
2026-05-03 20:38 52.91367 7.66765 39904 ft 499 kts 348°
2026-05-03 20:38 53.05126 7.63543 39922 ft 500 kts 348°
2026-05-03 20:39 53.18961 7.60277 39896 ft 503 kts 348°
2026-05-03 20:39 53.32832 7.56985 39891 ft 503 kts 348°
2026-05-03 20:40 53.46686 7.53674 39912 ft 503 kts 348°
2026-05-03 20:40 53.60532 7.50343 39912 ft 502 kts 348°
2026-05-03 20:41 53.74300 7.47008 39883 ft 502 kts 348°
2026-05-03 20:41 53.88122 7.43639 39888 ft 501 kts 348°
2026-05-03 20:42 54.01945 7.40246 39888 ft 501 kts 348°
2026-05-03 20:42 54.15784 7.36824 39882 ft 503 kts 348°
2026-05-03 20:43 54.29652 7.33376 39883 ft 503 kts 348°
2026-05-03 20:43 54.43451 7.29920 39869 ft 504 kts 348°
2026-05-03 20:44 54.57323 7.26422 39877 ft 503 kts 348°
2026-05-03 20:44 54.71185 7.22902 39871 ft 503 kts 348°
2026-05-03 20:45 54.85044 7.19359 39879 ft 503 kts 348°
2026-05-03 20:45 54.98840 7.15336 39887 ft 498 kts 339°
2026-05-03 20:45 55.05113 7.10497 39882 ft 491 kts 328°
2026-05-03 20:46 55.11106 7.04751 39884 ft 491 kts 327°
2026-05-03 20:46 55.22899 6.92983 39889 ft 491 kts 327°
2026-05-03 20:47 55.34783 6.81146 39910 ft 491 kts 327°
2026-05-03 20:47 55.46653 6.69261 39901 ft 489 kts 326°
2026-05-03 20:48 55.58429 6.57381 39904 ft 489 kts 326°
2026-05-03 20:48 55.70241 6.45383 39911 ft 489 kts 326°
2026-05-03 20:49 55.82042 6.33312 39914 ft 489 kts 326°
2026-05-03 20:49 55.93836 6.21161 39928 ft 489 kts 326°
2026-05-03 20:50 56.05596 6.08960 39923 ft 488 kts 326°
2026-05-03 20:50 56.17259 5.96772 39931 ft 488 kts 326°
2026-05-03 20:51 56.28962 5.84456 39928 ft 487 kts 326°
2026-05-03 20:51 56.40642 5.72075 39933 ft 487 kts 326°
2026-05-03 20:52 56.52366 5.59556 39930 ft 488 kts 326°